OE-11053 Weather Reports


time (UTC)temp
C
wind
direction
speed
KPH
gust
KPH
rain 1hr
cm
rain 24hr
cm
rain mn
cm
humidity
%
barometer
mb
20260903084136 22 290 6.4 17.7 0.00 0.00 0.00 53 1021.3
20260903083524 21 284 6.4 14.5 0.00 0.00 0.00 55 1021.4
20260903082524 21 289 6.4 14.5 0.00 0.00 0.00 55 1021.4
20260903081137 21 265 4.8 14.5 0.00 0.00 0.00 55 1021.4
20260903080524 21 286 4.8 12.9 0.00 0.00 0.00 57 1021.5
20260903075524 21 287 6.4 16.1 0.00 0.00 0.00 58 1021.6
20260903074137 21 291 6.4 16.1 0.00 0.00 0.00 58 1021.6
20260903073523 20 289 6.4 17.7 0.00 0.00 0.00 59 1021.6
20260903072523 21 266 4.8 14.5 0.00 0.00 0.00 58 1021.4
20260903071137 20 273 4.8 17.7 0.00 0.00 0.00 59 1021.6
20260903070524 20 250 3.2 11.3 0.00 0.00 0.00 61 1021.5
20260903065524 20 260 4.8 17.7 0.00 0.00 0.00 61 1021.6
20260903064136 20 242 4.8 17.7 0.00 0.00 0.00 62 1021.5
20260903063523 19 236 3.2 14.5 0.00 0.00 0.00 62 1021.4
20260903062524 18 237 3.2 11.3 0.00 0.00 0.00 66 1021.6
20260903061137 18 255 1.6 8.0 0.00 0.00 0.00 66 1021.7
20260903060524 18 254 1.6 9.7 0.00 0.00 0.00 66 1021.5
20260903055524 18 257 1.6 6.4 0.00 0.00 0.00 68 1021.4
20260903054136 18 266 1.6 9.7 0.00 0.00 0.00 69 1021.4
20260903053524 17 246 1.6 8.0 0.00 0.00 0.00 68 1021.5
20260903052524 17 248 1.6 8.0 0.00 0.00 0.00 69 1021.5
20260903051137 17 261 1.6 3.2 0.00 0.00 0.00 70 1021.3
20260903050523 17 283 1.6 6.4 0.00 0.00 0.00 71 1021.2
20260903045524 17 271 1.6 4.8 0.00 0.00 0.00 72 1021.2
20260903044136 17 250 1.6 4.8 0.00 0.00 0.00 72 1021.1
20260903043523 17 264 1.6 3.2 0.00 0.00 0.00 72 1021.1
20260903042524 17 239 3.2 6.4 0.00 0.00 0.00 72 1021.1
20260903041136 17 235 3.2 6.4 0.00 0.00 0.00 74 1021.0
20260903040524 17 244 1.6 3.2 0.00 0.00 0.00 74 1021.0
20260903035524 17 253 0.0 3.2 0.00 0.00 0.00 73 1021.0
20260903034523 17 268 1.6 4.8 0.00 0.00 0.00 72 1020.8
20260903033524 17 273 1.6 4.8 0.00 0.00 0.00 75 1020.8
20260903032524 17 273 1.6 6.4 0.00 0.00 0.00 75 1020.9
20260903031137 17 360 0.0 1.6 0.00 0.00 0.00 79 1020.9
20260903030524 17 96 1.6 1.6 0.00 0.00 0.00 79 1020.9
20260903025524 17 100 1.6 3.2 0.00 0.00 0.00 79 1020.8
20260903024524 17 90 1.6 3.2 0.00 0.00 0.00 79 1020.8
20260903023524 16 360 0.0 1.6 0.00 0.00 0.00 81 1020.7
20260903022524 16 348 0.0 1.6 0.00 0.00 0.00 81 1020.7
20260903021136 16 55 0.0 1.6 0.00 0.00 0.00 80 1020.6
20260903020524 16 249 0.0 3.2 0.00 0.00 0.00 78 1020.7
20260903015524 16 244 1.6 4.8 0.00 0.00 0.00 79 1020.8
20260903014136 16 267 1.6 4.8 0.00 0.00 0.00 80 1020.7
20260903013523 16 202 1.6 3.2 0.00 0.00 0.00 80 1020.6
20260903012523 16 360 0.0 3.2 0.00 0.00 0.00 80 1020.7
20260903011137 16 8 1.6 6.4 0.00 0.00 0.00 80 1020.6
20260903010524 16 358 1.6 4.8 0.00 0.00 0.00 81 1020.6
20260903005524 16 353 1.6 3.2 0.00 0.00 0.00 81 1020.5
20260903004137 17 192 1.6 3.2 0.00 0.00 0.00 79 1020.2
20260903003524 16 278 1.6 1.6 0.00 0.00 0.00 80 1020.5
20260903002524 16 290 1.6 1.6 0.00 0.00 0.00 80 1020.3
20260903001536 16 110 1.6 1.6 0.00 0.00 0.00 78 1020.3
20260903000523 16 18 1.6 4.8 0.00 0.00 0.00 79 1020.5
20260902235523 16 336 0.0 3.2 0.00 0.00 0.00 79 1020.5
20260902234137 17 330 1.6 3.2 0.00 0.00 0.00 78 1020.5
20260902233523 17 360 0.0 1.6 0.00 0.00 0.00 76 1020.5
20260902232523 17 324 0.0 1.6 0.00 0.00 0.00 77 1020.6
20260902231524 17 322 1.6 1.6 0.00 0.00 0.00 78 1020.5
20260902230523 17 309 0.0 1.6 0.00 0.00 0.00 77 1020.5
20260902225524 17 298 1.6 3.2 0.00 0.00 0.00 77 1020.5
20260902224137 17 62 0.0 3.2 0.00 0.00 0.00 76 1020.5
20260902223524 17 167 1.6 4.8 0.00 0.00 0.00 74 1020.4
20260902222524 17 199 1.6 4.8 0.00 0.00 0.00 76 1020.4
20260902221137 17 360 0.0 3.2 0.00 0.00 0.00 75 1020.1
20260902220523 17 182 3.2 4.8 0.00 0.00 0.00 74 1020.3
20260902215523 17 183 3.2 4.8 0.00 0.00 0.00 74 1020.1
20260902214137 17 155 1.6 4.8 0.00 0.00 0.00 76 1020.1
20260902213523 17 336 0.0 1.6 0.00 0.00 0.00 75 1020.1
20260902211137 17 293 0.0 3.2 0.00 0.00 0.00 75 1020.2
20260902210524 17 181 1.6 4.8 0.00 0.00 0.00 75 1020.1
20260902205524 17 186 3.2 4.8 0.00 0.00 0.00 74 1020.1
20260902204138 17 206 1.6 4.8 0.00 0.00 0.00 75 1020.1
20260902203523 17 180 3.2 6.4 0.00 0.00 0.00 75 1020.1
20260902202524 18 184 3.2 4.8 0.00 0.00 0.00 74 1020.3
20260902201137 18 181 3.2 4.8 0.00 0.00 0.00 74 1020.0
20260902200524 18 181 1.6 4.8 0.00 0.00 0.00 73 1020.2
20260902195524 18 231 1.6 3.2 0.00 0.00 0.00 72 1019.9
20260902194137 18 189 1.6 6.4 0.00 0.00 0.00 71 1019.9
20260902193524 18 180 3.2 6.4 0.00 0.00 0.00 71 1019.9
20260902192523 18 185 1.6 4.8 0.00 0.00 0.00 70 1019.9
20260902191137 19 208 1.6 3.2 0.00 0.00 0.00 69 1019.8
20260902190523 19 198 1.6 4.8 0.00 0.00 0.00 68 1019.8
20260902185524 19 250 1.6 3.2 0.00 0.00 0.00 67 1019.6
20260902184137 20 360 0.0 3.2 0.00 0.00 0.00 65 1019.5
20260902183524 20 360 0.0 1.6 0.00 0.00 0.00 64 1019.3
20260902182524 20 284 0.0 1.6 0.00 0.00 0.00 62 1019.1
20260902181137 20 288 1.6 1.6 0.00 0.00 0.00 61 1019.0
20260902180524 20 309 1.6 3.2 0.00 0.00 0.00 60 1018.9
20260902175524 21 360 0.0 1.6 0.00 0.00 0.00 59 1018.7
20260902174137 21 96 0.0 1.6 0.00 0.00 0.00 58 1018.8
20260902173523 21 51 0.0 3.2 0.00 0.00 0.00 56 1018.7
20260902172524 22 342 1.6 3.2 0.00 0.00 0.00 54 1018.6
20260902171137 22 360 3.2 8.0 0.00 0.00 0.00 52 1018.6
20260902170524 22 12 1.6 4.8 0.00 0.00 0.00 49 1018.4
20260902165524 23 13 3.2 8.0 0.00 0.00 0.00 49 1018.4
20260902164137 23 9 4.8 11.3 0.00 0.00 0.00 47 1018.3
20260902163524 23 21 4.8 12.9 0.00 0.00 0.00 46 1018.3
20260902162524 23 9 6.4 14.5 0.00 0.00 0.00 46 1018.1
20260902161137 24 345 6.4 12.9 0.00 0.00 0.00 45 1018.1
20260902160523 24 360 6.4 12.9 0.00 0.00 0.00 44 1018.1
20260902155524 25 335 4.8 12.9 0.00 0.00 0.00 43 1018.1
20260902154137 24 321 6.4 14.5 0.00 0.00 0.00 44 1018.2
20260902153524 24 278 3.2 9.7 0.00 0.00 0.00 43 1018.3
20260902152523 24 251 3.2 14.5 0.00 0.00 0.00 43 1018.3
20260902151137 25 271 3.2 12.9 0.00 0.00 0.00 43 1018.2
20260902150524 24 290 4.8 12.9 0.00 0.00 0.00 43 1018.3
20260902145524 24 271 3.2 9.7 0.00 0.00 0.00 44 1018.4
20260902144137 24 233 3.2 12.9 0.00 0.00 0.00 44 1018.4
20260902143523 24 277 3.2 14.5 0.00 0.00 0.00 43 1018.5
20260902142524 24 288 4.8 12.9 0.00 0.00 0.00 42 1018.5
20260902141137 24 198 3.2 9.7 0.00 0.00 0.00 45 1018.5
20260902140524 24 276 3.2 12.9 0.00 0.00 0.00 46 1018.5
20260902135524 23 343 3.2 9.7 0.00 0.00 0.00 45 1018.7
20260902134136 23 334 3.2 9.7 0.00 0.00 0.00 47 1018.7
20260902133524 23 330 4.8 9.7 0.00 0.00 0.00 47 1018.7
20260902132524 23 300 1.6 12.9 0.00 0.00 0.00 50 1018.9
20260902131137 23 305 4.8 12.9 0.00 0.00 0.00 49 1018.9
20260902130524 23 320 4.8 11.3 0.00 0.00 0.00 49 1019.0
20260902125524 23 343 4.8 11.3 0.00 0.00 0.00 48 1019.0
20260902124136 23 300 3.2 9.7 0.00 0.00 0.00 50 1019.0
20260902123524 23 304 4.8 8.0 0.00 0.00 0.00 51 1019.1
20260902122524 23 334 4.8 12.9 0.00 0.00 0.00 50 1019.1
20260902121137 23 340 3.2 9.7 0.00 0.00 0.00 49 1019.3
20260902120523 23 334 4.8 12.9 0.00 0.00 0.00 49 1019.3
20260902115523 23 307 4.8 9.7 0.00 0.00 0.00 50 1019.4
20260902114137 23 305 3.2 9.7 0.00 0.00 0.00 50 1019.3
20260902113524 23 342 4.8 12.9 0.00 0.00 0.00 48 1019.5
20260902112524 23 346 4.8 12.9 0.00 0.00 0.00 49 1019.8
20260902111137 23 23 3.2 9.7 0.00 0.00 0.00 48 1019.7
20260902110524 23 341 4.8 11.3 0.00 0.00 0.00 48 1019.8
20260902105523 23 268 1.6 6.4 0.00 0.00 0.00 48 1020.0
20260902104137 23 349 3.2 9.7 0.00 0.00 0.00 47 1019.9
20260902103524 23 96 1.6 4.8 0.00 0.00 0.00 47 1019.9
20260902102524 23 145 1.6 6.4 0.00 0.00 0.00 48 1020.1
20260902101137 23 332 3.2 9.7 0.00 0.00 0.00 48 1020.2
20260902100524 24 81 1.6 9.7 0.00 0.00 0.00 46 1020.1
20260902095524 24 98 3.2 8.0 0.00 0.00 0.00 45 1020.1
20260902094137 23 105 1.6 9.7 0.00 0.00 0.00 48 1020.2
20260902093524 24 124 1.6 8.0 0.00 0.00 0.00 46 1020.1
20260902092523 23 96 1.6 6.4 0.00 0.00 0.00 49 1020.3
20260902091136 23 123 3.2 6.4 0.00 0.00 0.00 49 1020.5
20260902090524 22 130 1.6 6.4 0.00 0.00 0.00 51 1020.6